Weather Roundup
Issued by NWS

Home | Current Version | Previous Version | Graphics & Text | Print | Product List | Glossary Off
Versions: 1 2 3 4 5 6 7 8 9 10 11 12 13 14 15 16 17 18 19 20 21 22 23 24 25 26 27 28 29 30 31 32 33 34 35 36 37 38 39 40 41 42 43 44 45 46 47 48 49 50

000
NZUS93 KARX 061159
HRRWXR

CURRENT HOURLY OBSERVATIONS ACROSS
MUCH OF THE UPPER MISSISSIPPI VALLEY
NATIONAL WEATHER SERVICE LA CROSSE WI
600 AM CST FRI MAR 06 2015


...SOUTHEAST MINNESOTA...


CITY           SKY/WX    TMP DP  RH WIND       PRES   REMARKS
ROCHESTER      CLEAR      8  -1  66 S20       30.12F WCI -11
ROCHESTER/MAYO FAIR      10  -1  60 S13G22    30.14F WCI  -5
WINONA         CLEAR     12   1  62 S5        30.22F WCI   4
AUSTIN         CLEAR      7   1  78 S10       30.14F WCI  -8
ALBERT LEA     CLEAR      9   1  72 SW3       30.13F
DODGE CENTER   PTCLDY    10   3  72 S18       30.11S WCI  -8
PRESTON        CLEAR      7   0  71 S18       30.16S WCI -12
OWATONNA       CLEAR      9   1  72 S14G21    30.11F WCI  -8
FARIBAULT      CLEAR      9   1  72 S8        30.12F WCI  -4
$$

...ELSEWHERE IN MINNESOTA...


CITY           SKY/WX    TMP DP  RH WIND       PRES   REMARKS
MINNEAPOLIS    PTCLDY    10   1  67 S7        30.10F WCI  -1
INTNL FALLS    CLEAR      9   2  73 SW7       29.87R WCI  -2
DULUTH         CLOUDY    11   2  67 SW20G25   29.93F WCI  -7
RED WING       CLEAR     12   0  57 S3        30.15F
REDWOOD FALLS  PTCLDY    17  10  74 S7        30.06S WCI   8
MANKATO        CLEAR     12  -8  40 S12       30.10S WCI  -2
FAIRMONT       CLEAR     16   7  67 S12       30.08F WCI   3
$$

...SOUTHWEST WISCONSIN...


CITY           SKY/WX    TMP DP  RH WIND       PRES   REMARKS
LA CROSSE      MOCLDY     7  -2  66 S13       30.24F WCI  -9
PRAIRIE DU CHI CLOUDY     4  -4  70 E6        30.31F WCI  -7
BOSCOBEL       CLOUDY    -9 -15  75 CALM      30.32F
LONE ROCK      NOT AVBL
PLATTEVILLE    MOCLDY     3  -4  75 SE12      30.32F WCI -14
FORT MC COY    CLOUDY     7  -2  68 CALM      30.26F
VIROQUA        CLOUDY     4  -2  75 S9        30.22F WCI -10
WIS DELLS      NOT AVBL
$$

...ELSEWHERE IN WISCONSIN...


CITY           SKY/WX    TMP DP  RH WIND       PRES   REMARKS
MILWAUKEE      PTCLDY     0  -8  69 SW8       30.38F WCI -14
MADISON        PTCLDY     2  -5  72 S7        30.35F WCI -11
GREEN BAY      PTCLDY     1  -6  72 S9        30.30F WCI -14
EAU CLAIRE     PTCLDY     6  -3  66 S7        30.15F WCI  -6
BLACK RVR FLS  CLOUDY     5  -2  71 S3        30.22F
MEDFORD        CLOUDY     4  -4  71 S10       30.12F WCI -12
WAUSAU         PTCLDY    -2  -7  79 CALM      30.17F
WIS RAPIDS     MOCLDY    -1  -8  72 S7        30.24F WCI -14
MARSHFIELD     CLOUDY    -1  -7  75 S9        30.17F WCI -16
RICE LAKE      PTCLDY     4  -3  74 SE5       30.12F WCI  -5
$$

...NORTHEAST IOWA...


CITY           SKY/WX    TMP DP  RH WIND       PRES   REMARKS
DECORAH        CLOUDY    10   1  67 S14G21    30.20F WCI  -5
MASON CITY     CLEAR     12   5  73 S9        30.16F WCI   0
CHARLES CITY   CLOUDY    10   3  72 S15       30.20S WCI  -6
OELWEIN        CLOUDY     9   1  72 S20       30.24F WCI -11
$$

...ELSEWHERE IN IOWA...


CITY           SKY/WX    TMP DP  RH WIND       PRES   REMARKS
DES MOINES     PTCLDY    23  12  62 S13       30.22S WCI  11
IOWA CITY      MOCLDY     8   2  76 SE8       30.35F WCI  -4
FORT DODGE     FAIR      18   9  68 S9        30.16F WCI   6
$$

...NORTHERN ILLINOIS...


CITY           SKY/WX    TMP DP  RH WIND       PRES   REMARKS
CHICAGO-OHARE  MOCLDY     5  -1  76 S9        30.43F WCI  -9
CHICAGO-MIDWAY MOCLDY     7   0  73 SW9       30.46F WCI  -7
MOLINE         CLEAR      8  -1  66 S7        30.40F WCI  -3
ROCKFORD       PTCLDY     0  -7  72 S5        30.42F WCI -10
PEORIA         FAIR       6  -1  73 S8        30.48F WCI  -7
$$

NOTE: "FAIR" INDICATES FEW OR NO CLOUDS BELOW 12,000 FEET WITH NO
SIGNIFICANT WEATHER AND/OR OBSTRUCTIONS TO VISIBILITY. WIND
SPEEDS ARE IN MILES-PER-HOUR.



USA.gov is the U.S. government's official web portal to all federal, state and local government web resources and services.